User: anonymous   Login
Location: Edmonton
(53.5500°N, 113.5000°W)
Time: 07:34:29
(UTC-06:00)
Language:

CZ-4C R/B - Orbit

View from above orbital plane
View from above orbital plane
View from above satellite
View from above satellite

Ground track
Ground track

The orbit data is extracted from the following two-line orbital elements,

1 36416U 10009D   17082.55514823 -.00000062 +00000-0 +24169-4 0  9996
2 36416 063.4388 133.7400 0378740 356.5318 003.3105 13.69513152352482
Epoch (UTC): 23 March 2017 13:19:24
Eccentricity: 0.0378740
inclination: 63.4388°
perigee height: 722 km
apogee height: 1281 km
right ascension of ascending node: 133.7400°
argument of perigee: 356.5318°
revolutions per day: 13.69513152
mean anomaly at epoch: 3.3105°
orbit number at epoch: 35248

The dashed part of the orbit path shows where the satellite is in the earth's shadow,  

DLR